Regional Weather Roundup
Issued by NWS Jackson, KY

Home | Current Version | Previous Version | Text Only | Print | Product List | Glossary Off
Versions: 1 2 3 4 5 6 7 8 9 10 11 12 13 14 15 16 17 18 19 20 21 22 23 24 25 26 27

000
ASUS43 KJKL 240010
RWRJKL

EAST KENTUCKY HOURLY WEATHER ROUNDUP
NATIONAL WEATHER SERVICE JACKSON KY
800 PM EDT SUN APR 23 2017

NOTE: "FAIR" INDICATES FEW OR NO CLOUDS BELOW 12,000 FEET WITH
NO SIGNIFICANT WEATHER AND/OR OBSTRUCTIONS TO VISIBILITY.

* THESE REPORTS ARE NOT UNDER NWS QUALITY CONTROL AND MAY NOT
  REPORT WEATHER SUCH AS PRECIPITATION AND FOG.

KYZ079-080-083-085-087-088-110-112-115-119-120-240100
...EASTERN KENTUCKY...

CITY           SKY/WX    TMP DP  RH WIND       PRES   REMARKS
JACKSON        LGT RAIN  51  50  96 VRB3      29.91F
6HR MIN TEMP:  49; 6HR MAX TEMP:  51; 6HR PCP:  0.41;

LONDON         CLOUDY    53  49  86 E14G28    29.82F
6HR MIN TEMP:  51; 6HR MAX TEMP:  53; 6HR PCP:  0.34;

SOMERSET*      CLOUDY    54  50  87 E8        29.86R
MONTICELLO*    CLOUDY    55  52  89 N6        29.86R
6HR MIN TEMP:  50; 6HR MAX TEMP:  55; 6HR PCP:  0.17;

WILLIAMSBURG*  CLOUDY    54  54 100 E9G17     29.83R
MIDDLESBORO*   RAIN      54  52  91 S6        29.86F
6HR MIN TEMP:  54; 6HR MAX TEMP:  55; 6HR PCP:  0.74;

HARLAN APT*    CLOUDY    52  52 100 NE3       29.88R
PIKE CO APT*   HVY RAIN  50  50 100 NE5       29.94F
BIG SANDY APT* LGT RAIN  52  52 100 CALM      29.95S
6HR MIN TEMP:  52; 6HR MAX TEMP:  53;

MOREHEAD APT*  LGT RAIN  52  48  87 NE6       29.97S
ASHLAND*       CLOUDY    55  52  88 CALM      29.94S
$$

KYZ035-036-041-042-044-050-067-078-099-240100
...CENTRAL KENTUCKY...

CITY           SKY/WX    TMP DP  RH WIND       PRES   REMARKS
MT STERLING*   DRIZZLE   52  48  87 E13       29.95F
FLEMING/MASON* CLOUDY    56  46  67 E8        29.98R
DANVILLE*      CLOUDY    50  46  87 NE12G22   29.88F
LEXINGTON      CLOUDY    56  46  69 NE18      29.90F
6HR MIN TEMP:  52; 6HR MAX TEMP:  57; 6HR PCP:  0.01;

FRANKFORT      CLOUDY    58  45  62 NE10G17   29.91F
6HR MIN TEMP:  55; 6HR MAX TEMP:  59; 6HR PCP:  0.01;

LOUISVILLE     CLOUDY    61  39  44 N14G21    29.90F
6HR MIN TEMP:  60; 6HR MAX TEMP:  63;

LEBANON*       CLOUDY    55  46  71 NE10G21   29.88R
GLASGOW*       DRIZZLE   52  52 100 N9        29.87S
BOWLING GREEN  LGT RAIN  54  51  90 N5        29.89S
6HR MIN TEMP:  51; 6HR MAX TEMP:  54; 6HR PCP:  0.13;

$$

KYZ091>093-OHZ055-061-077-WVZ005-015-034-035-042-240100
...SOUTHERN OHIO/WEST VIRGINIA...

CITY           SKY/WX    TMP DP  RH WIND       PRES   REMARKS
COVINGTON      CLOUDY    62  36  37 NE9       29.95F
COLUMBUS       CLOUDY    63  35  35 NE6       29.98S
DAYTON         CLOUDY    63  32  31 NE9       29.99R
WILMINGTON     CLOUDY    60  38  43 NE6       29.97S
HUNTINGTON     LGT RAIN  55  48  77 NE6       29.95S
CHARLESTON     CLOUDY    57  51  80 CALM      29.95F
PINEVILLE*     LGT RAIN  50  48  92 MISG      30.01R
BECKLEY        CLOUDY    47  43  86 E12       29.96F
BLUEFIELD      LGT RAIN  44  42  93 SE13G21   29.97R
LOGAN CO APT*  CLOUDY    50  50 100 CALM      29.95R
$$

VAZ002-007-008-TNZ017-027-036-066-071-240100
...SOUTHWEST VIRGINIA/EAST TENNESSEE...

CITY           SKY/WX    TMP DP  RH WIND       PRES   REMARKS
WISE*          LGT RAIN  50  50 100 CALM      29.93S
JONESVILLE*    LGT RAIN  52  50  93 NE6       29.91R
ABINGDON*      RAIN      48  47  96 E9        29.93S
BRISTOL        RAIN      50  48  93 E7        29.91R FOG
MORRISTOWN*    CLOUDY    52  52 100 NE9       29.84R FOG
SEVIERVILLE*   CLOUDY    54  54 100 E6        29.81F
KNOXVILLE      LGT RAIN  56  53  90 NE9       29.79F FOG
LAFOLLETTE*    CLOUDY    54  52  94 NE9       29.84F
OAK RIDGE      LGT RAIN  55  52  89 VRB5      29.81S
CROSSVILLE     CLOUDY    55  52  89 E9        29.79S
NASHVILLE      LGT RAIN  52  50  93 N15G22    29.85R FOG
$$

...KEY TO REMARKS...
VSB - VISIBILITY IN MILES
WCI - WIND CHILL INDEX
HX  - HEAT INDEX

$$




USA.gov is the U.S. government's official web portal to all federal, state and local government web resources and services.